869  
ASUS41 KOKX 241308  
RWROKX  
 
REGIONAL WEATHER ROUNDUP  
NATIONAL WEATHER SERVICE NEW YORK NY  
900 AM EDT FRI MAR 24 2017  
 
NOTE: "FAIR" INDICATES FEW OR NO CLOUDS BELOW 12,000 FEET WITH NO  
SIGNIFICANT WEATHER AND/OR S TO VISIBILITY
.  
 
NYZ071-072-176-178-NJZ106-104-241400-  
NEW YORK CITY METRO AREA  
 
CITY SKY/WX TMP DP RH WIND PRES REMARKS
 
CENTRAL PARK CLOUDY 40 22 48 S8 30.46F WCI 34  
WALL ST HELIPT CLOUDY 39 28 65 SW9 30.48F WCI 33  
LAGUARDIA APRT CLOUDY 40 27 59 S14G23 30.45F WCI 32  
KENNEDY INTL CLOUDY 40 33 76 S15 30.49F WCI 32  
BREEZY POINT N/A 37 N/A N/A S10G17 N/A WCI 30  
NEWARK/LIBERTY CLOUDY 38 28 67 S12 30.46F WCI 30  
TETERBORO CLOUDY 38 27 64 S14G20 30.44F WCI 30  

 
 
NYZ177-179-078>081-241400-  
LONG ISLAND NEW YORK  
 
CITY SKY/WX TMP DP RH WIND PRES REMARKS
 
JONES BEACH N/A 39 N/A N/A SW12G18 N/A WCI 32  
MATINECOCK PT N/A 37 N/A N/A SW13 N/A WCI 29  
FARMINGDALE CLOUDY 40 30 67 SW17G23 30.47F WCI 31  
MACARTHUR/ISP CLOUDY 40 30 67 S14G22 30.47S WCI 32  
SHIRLEY CLOUDY 39 32 76 S13 30.49S WCI 31  
WESTHAMPTON CLOUDY 41 30 65 S9 30.50F  
EAST HAMPTON CLOUDY 39 31 70 S9 30.48F WCI 33  
MONTAUK N/A 41 32 70 S9 30.49F  

 
 
NYZ052-065-067-241400-  
HUDSON VALLEY  
 
CITY SKY/WX TMP DP RH WIND PRES REMARKS
 
WHITE PLAINS CLOUDY 37 23 56 S7 30.42F WCI 32  
NEWBURGH CLOUDY 36 14 41 SW5 30.41F WCI 32  
MONTGOMERY CLOUDY 32 18 56 CALM 30.39F  
POUGHKEEPSIE CLOUDY 34 16 47 S9 30.40F WCI 27  
ALBANY CLOUDY 36 11 35 S14G21 30.32F WCI 27  

 
 
NJZ001-105-106-008-010-013-015-019>022-104-241400-  
NEW JERSEY  
 
CITY SKY/WX TMP DP RH WIND PRES REMARKS
 
NEWARK/LIBERTY CLOUDY 38 28 67 S12 30.46F WCI 30  
TETERBORO CLOUDY 38 27 64 S14G20 30.44F WCI 30  
CALDWELL CLOUDY 36 23 59 VRB7 30.45F WCI 30  
SOMERVILLE MOSUNNY 35 26 69 S7 30.44S WCI 29  
LINDEN N/A 37 27 67 S6 30.47S WCI 32  
SUSSEX CLOUDY 35 18 49 SW6 30.39S WCI 30  
ANDOVER N/A 36 15 42 S8 30.40S WCI 30  
TRENTON CLOUDY 36 28 73 SW8 30.46R WCI 30  
MILLVILLE MOSUNNY 42 29 59 S12G18 30.48S  
ATLANTIC CITY CLOUDY 41 28 60 S14 30.49S  
WRIGHTSTOWN CLOUDY 38 29 70 SW10 30.44F WCI 31  
TOMS RIVER CLOUDY 41 30 65 S12G17 30.48F  
BELMAR CLOUDY 38 30 73 S9G17 30.48F WCI 31  

 
 
PAZ047>061-062-071-241400-  
EASTERN PENNSYLVANIA  
 
CITY SKY/WX TMP DP RH WIND PRES REMARKS
 
PHILADELPHIA CLOUDY 38 24 57 S10 30.48S WCI 31  
ALLENTOWN MOSUNNY 38 23 55 S10 30.41S WCI 31  
SCRANTON LGT RAIN 36 20 52 S8 30.32F WCI 30  

 
 
CTZ002-004>006-009-010-012-RIZ004-006-007-MAZ004-011-015-241400-  
SOUTHERN NEW ENGLAND  
IN CT  
 
CITY SKY/WX TMP DP RH WIND PRES REMARKS
 
BRADLEY INTL CLOUDY 35 27 72 S8 30.42F WCI 29  
HARTFORD CLOUDY 36 26 67 S8 30.44F WCI 30  
DANBURY PTSUNNY 35 22 58 SW6 30.44S WCI 30  
WTRBURY/OXFORD PTSUNNY 34 18 51 SW6 30.43F WCI 29  
BRIDGEPORT CLOUDY 39 29 67 S10 30.46F WCI 32  
MERIDEN CLOUDY 37 25 61 S5 30.45F WCI 33  
NEW HAVEN PTSUNNY 38 30 73 SW10 30.47F WCI 31  
CHESTER NOT AVBL  
GROTON CLOUDY 40 29 64 S13 30.47F WCI 32  
WILIMANTIC CLOUDY 34 24 67 S7 30.45F WCI 28  
 
IN RI  
 
CITY SKY/WX TMP DP RH WIND PRES REMARKS
 
PROVIDENCE CLOUDY 35 23 61 S8 30.47F WCI 29  
BLOCK ISLAND CLOUDY 40 29 64 S16 30.48F WCI 31  
WESTERLY CLOUDY 41 29 62 S10 30.48F  
IN MA  
 
CITY SKY/WX TMP DP RH WIND PRES REMARKS
 
BOSTON CLOUDY 34 14 43 S9 30.47F WCI 27  
WORCESTER CLOUDY 29 14 53 S12 30.37F WCI 19  
WESTFIELD PTSUNNY 31 20 63 S6 30.40F WCI 25  
PROVINCETOWN CLOUDY 35 18 49 S14 30.50F WCI 26  
NANTUCKET CLOUDY 37 21 52 S12 30.53F WCI 29  

 
 
ANZ330-335-338-340-345-350-353-355-241400-  
COASTAL MARINE OBSERVATIONS  
 
 
STATION/POSITION TIME SKY/WX TEMP WIND PRES VSBY WAVE
 
AIR SEA DIR/SP/G HT/PER  
(UTC) (F) (DEG/KT/KT) (MB) (MI) (FT/S)  
NY HARB ENTRANCE 1150 40 41 210/ 16/ 19 1032.3 3/ 4  
20 S FIRE ISLAND 1150 40 40 200/ 16/ 19 1032.3 3/ 4  
GREAT SOUTH BAY NOT AVBL  
23 SSW MONTAUK P 1150 41 42 1033.2 2/ 4  
15 E BARNEGAT LI 1230 42 N/A 4/ 5  
HUDSON CANYON 1150 42 44 190/ 14/ 17 1033.8 2/ 4  
KINGS POINT 1230 37 38 1031.3  
EXECUTION ROCKS NOT AVBL  
CENTRAL LI SOUND 1215 38 190/ 8/ 10 N/A 1/ 3  
EASTERN LI SOUND NOT AVBL  
ROBBINS REEF 1236 37 190/ 12/ 14 1031.9  

 
 
>>>>>>>>>>>>>>>>>>>>>>>>>>>> KEY <<<<<<<<<<<<<<<<<<<<<<<<<<<  
> <  
> SKY/WX - SKY CONDITION/PRESENT WEATHER <  
> TMP - TEMPERATURE IN FAHRENHEIT <  
> DP - DEW POINT IN FAHRENHEIT <  
> RH - RELATIVE HUMIDITY IN PERCENT <  
> WIND - DIRECTION (FROM) AND SPEED IN MPH <  
> PRES - MEAN SEA LEVEL PRESSURE (INCHES OF HG) <  
> WCI - WIND CHILL INDEX <  
> VSB - VISIBILITY IN MILES <  
> HX - HEAT INDEX <  
> TC - TEMPERATURE IN CELSIUS <  
> VRB - VARIABLE WIND DIRECTION <  
> <  
>>>>>>>>>>>>>>>>>>>>>>>>>>>> KEY <<<<<<<<<<<<<<<<<<<<<<<<<<<  
 
 
CLICK HERE TO GO TO PREVIOUS BULLETINS.

The Nexlab NY Page
The Nexlab NJ Page
The Nexlab CT Page Main Text Page